User: anonymous   Login
Location: Unspecified
(0.0000°N, 0.0000°E)
Time: 19:23:57
(UTC+00:00)
Language:

STARLINK-31315 - Orbit

View from above orbital plane
View from above orbital plane
View from above satellite
View from above satellite

Ground track
Ground track

The orbit is defined by the following mean orbital elements,

1 58884U          26145.42781058 +.00000000 +00000-0 +62590-4 0 00005
2 58884  53.1615 300.0267 0001016  86.5252 273.5865 15.30192523    07
Epoch (UTC): 25 May 2026 10:16:02
Eccentricity: 0.0001016
inclination: 53.1615°
perigee height: 475 km
apogee height: 476 km
right ascension of ascending node: 300.0267°
argument of perigee: 86.5252°
revolutions per day: 15.30192523
mean anomaly at epoch: 273.5865°

The dashed part of the orbit path shows where the satellite is in the earth's shadow,  

DLR